Hourly Data Report for May 28, 2012

All times are specified in Local Standard Time (LST). Add 1 hour to adjust for Daylight Saving Time where and when it is observed.

PENTICTON A
BRITISH COLUMBIA

49°27'45.000" N
119°36'08.000" W
344.40 m
1126146
71889
YYF

Download Data

Hourly Data (May 2012)
Hourly Data Report for May 28, 2012
Temp Definition
°C
Dew Point Temp Definition
°C
Rel Hum Definition
%
Wind Dir Definition
10's deg

Wind Spd Definition
km/h
Visibility Definition
km
Stn Press Definition
kPa
Hmdx Definition


Wind Chill Definition


Weather Definition


TIME
00:00 Legend Double Dagger 8.7 1.4 60 2 4 10.0 97.23     LegendNANA
01:00 Legend Double Dagger 6.9 1.0 66 35 8 10.0 97.24     Mainly Clear
02:00 Legend Double Dagger 6.0 0.6 68   0 10.0 97.27     LegendNANA
03:00 Legend Double Dagger 5.7 0.5 69 34 6 10.0 97.29     LegendNANA
04:00 Legend Double Dagger 5.8 0.6 69 32 5 10.0 97.33     Clear
05:00 Legend Double Dagger 6.3 2.0 74 33 6 10.0 97.36     LegendNANA
06:00 Legend Double Dagger 12.2 3.2 54 35 10 10.0 97.37     LegendNANA
07:00 Legend Double Dagger 14.9 3.2 45 4 5 10.0 97.40     Clear
08:00 Legend Double Dagger 17.1 3.9 41 5 8 10.0 97.35     LegendNANA
09:00 Legend Double Dagger 18.2 3.4 37 33 8 10.0 97.28     LegendNANA
10:00 Legend Double Dagger 19.7 2.7 32 3 6 10.0 97.21     Mainly Clear
11:00 Legend Double Dagger 20.8 4.1 33 9 4 10.0 97.13     LegendNANA
12:00 Legend Double Dagger 22.6 4.3 30 16 12 10.0 97.07     LegendNANA
13:00 Legend Double Dagger 23.2 5.3 31 16 26 10.0 97.04     Mostly Cloudy
14:00 Legend Double Dagger 24.4 4.9 28 16 26 10.0 97.01     LegendNANA
15:00 Legend Double Dagger 23.8 3.4 26 17 24 10.0 96.99     LegendNANA
16:00 Legend Double Dagger 23.0 4.7 30 16 28 10.0 96.99     Mostly Cloudy
17:00 Legend Double Dagger 21.3 2.2 28 17 26 10.0 96.99     LegendNANA
18:00 Legend Double Dagger 19.9 5.7 39   0 10.0 97.01     LegendNANA
19:00 Legend Double Dagger 18.0 5.0 42 2 26 10.0 97.10     Mostly Cloudy
20:00 Legend Double Dagger 16.6 4.1 43 2 26 10.0 97.17     LegendNANA
21:00 Legend Double Dagger 15.8 4.3 46 3 18 10.0 97.25     Rain Showers
22:00 Legend Double Dagger 14.9 3.8 47 1 13 10.0 97.29     Mostly Cloudy
23:00 Legend Double Dagger 14.1 3.0 47 0 21 10.0 97.34     LegendNANA

Notes on Data Quality.

Legend

  • E = Estimated
  • M = Missing
  • NA = Not Available
  • ‡ = Partner data that is not subject to review by the National Climate Archives
Date modified: